Theta_e
359 363 365 365 366 366 365 364 363 362 361 360 360 361 360 361 362 363 364 363 362 363 362 362 360 358 357 356 356 355 356 355 355 355 354 354 353 352 351 351 350 347 350
362 365 364 365 365 366 364 364 363 361 360 360 360 361 360 361 363 363 363 363 362 360 361 361 359 358 356 355 355 355 355 355 355 356 356 356 356 355 354 352 351 349 350
362 364 362 364 365 365 364 363 361 360 360 360 361 360 361 362 363 363 363 363 360 358 360 360 358 356 355 355 355 355 354 354 354 355 356 355 352 355 355 357 356 354 350
364 365 358 363 364 364 364 363 362 362 361 360 360 361 361 362 363 363 363 363 360 356 356 355 355 355 355 354 354 353 353 353 353 353 356 356 354 353 353 355 356 355 353
363 364 360 363 363 364 363 362 362 361 360 360 359 361 361 362 362 362 362 362 359 357 355 354 354 354 355 354 353 353 354 355 355 356 356 356 356 353 354 356 356 355 355
361 361 361 361 362 362 363 362 361 361 360 360 360 361 361 362 361 361 362 361 361 358 358 355 354 354 353 353 352 353 353 354 354 356 356 354 353 348 350 355 358 359 359
359 359 360 361 361 361 362 361 361 360 359 360 360 361 361 361 361 361 361 361 359 358 357 355 353 352 352 351 350 352 352 353 354 352 351 354 353 348 348 350 358 361 360
358 358 357 361 360 360 360 360 360 359 359 359 360 360 361 360 360 360 360 359 358 357 354 353 351 352 351 350 353 352 351 351 353 350 350 346 347 346 347 351 355 357 361
359 356 354 354 358 359 359 358 358 358 358 358 358 358 359 359 359 359 359 357 355 354 353 352 351 350 350 352 352 352 352 352 350 345 341 338 347 348 351 354 355 357 357
359 357 354 352 351 351 355 358 358 357 357 357 358 358 358 358 358 357 356 356 354 353 353 351 350 349 350 351 352 351 350 350 342 339 338 346 348 349 352 356 357 357 357
355 356 353 350 348 348 347 354 356 357 358 357 357 357 353 349 352 353 355 356 354 354 353 352 352 351 351 352 351 349 347 346 345 344 344 350 350 352 355 357 358 358 358
353 354 354 351 348 347 347 352 347 347 347 347 348 352 347 351 351 346 352 355 354 353 353 352 351 350 348 342 345 348 348 349 349 349 349 351 351 353 354 359 359 358 359
355 355 355 354 353 349 347 348 346 345 345 345 348 351 353 352 352 347 349 346 348 350 345 345 347 345 345 347 349 350 349 351 350 349 350 352 351 352 353 354 356 356 355
354 355 357 357 355 354 350 348 349 347 347 347 349 355 354 350 351 348 345 345 347 345 347 347 347 355 353 353 352 351 352 351 350 351 352 349 349 351 353 351 350 349 350
354 356 357 359 357 354 355 350 350 351 351 350 350 353 350 346 349 349 347 344 344 346 348 349 354 356 357 357 354 352 351 354 355 352 350 346 343 343 344 343 343 343 343
355 356 357 357 359 356 356 355 352 353 352 351 351 351 351 348 350 345 347 344 344 349 354 355 357 357 358 356 353 354 355 355 353 352 347 347 340 338 336 336 336 336 337
355 357 355 356 360 359 357 356 355 353 351 351 352 355 353 352 352 348 342 342 344 355 357 356 357 361 359 357 352 351 352 352 349 349 347 343 343 337 332 330 332 332 333
354 356 355 356 359 359 358 357 355 354 352 351 353 355 354 353 351 350 343 340 349 354 353 357 360 354 353 349 346 347 348 347 346 344 343 340 337 333 335 329 328 327 329
355 355 352 359 358 359 359 359 358 359 354 352 353 354 355 352 349 347 344 346 357 355 359 356 353 353 347 343 341 342 346 344 345 341 340 337 334 331 329 332 331 326 325
355 357 358 358 359 361 358 356 355 355 354 353 353 353 356 351 349 348 350 354 357 355 353 354 352 348 342 339 338 338 343 343 343 341 337 333 331 329 327 327 326 326 324
355 354 356 356 358 356 351 350 349 348 351 351 353 354 354 351 349 350 350 355 355 353 350 346 346 343 336 337 336 337 338 343 342 339 336 331 328 325 324 324 325 326 327
354 354 355 355 356 353 351 351 349 349 351 351 351 353 353 353 354 353 353 347 346 342 340 337 338 338 336 335 332 329 325 329 336 338 332 327 325 323 323 325 326 328 327
354 354 355 353 351 352 356 353 352 353 353 349 351 349 353 352 350 348 345 344 337 333 332 334 332 333 333 337 331 326 320 317 319 323 325 321 325 322 324 325 326 327 327
353 355 354 353 355 353 355 353 354 345 343 342 338 340 343 343 342 340 337 335 340 335 330 330 331 333 331 326 327 325 324 321 312 310 318 319 322 323 326 325 326 327 328
353 352 353 354 354 353 353 354 349 341 337 335 334 335 338 341 342 340 340 340 336 327 330 326 327 326 324 322 322 321 322 320 322 315 310 314 320 322 324 324 325 325 327
353 352 353 352 351 352 352 352 343 337 334 332 333 336 335 334 334 336 335 334 329 330 327 326 325 325 324 325 324 321 317 314 314 315 313 316 316 320 323 324 323 322 324
Wind_Speed
15 21 15 16 18 19 21 21 20 19 19 19 19 18 18 17 17 15 14 14 13 12 13 13 13 11 11 10 9 9 9 8 8 8 7 6 4 3 3 3 5 7 6
20 22 16 17 19 20 21 21 20 20 20 20 19 18 18 18 17 15 13 13 12 13 13 12 11 10 10 10 9 8 8 8 7 7 7 9 7 5 5 6 6 3 4
20 20 19 17 19 21 21 21 21 21 21 20 19 18 18 18 17 15 13 13 12 12 12 11 10 10 9 9 9 8 8 7 7 6 8 9 6 8 6 9 9 8 7
20 19 20 17 19 21 21 20 21 21 20 20 19 18 17 17 16 14 13 12 12 11 10 9 9 8 8 8 8 8 7 6 5 7 11 4 4 12 9 9 9 10 10
21 21 19 17 19 20 21 20 20 20 20 20 19 18 17 16 15 13 12 11 11 10 10 9 8 8 8 8 7 6 6 5 6 10 4 4 5 9 7 10 11 12 12
22 22 21 19 19 20 20 20 20 20 20 19 19 17 16 15 13 12 11 11 11 11 9 8 8 7 6 6 5 5 4 5 8 11 4 2 7 10 7 8 13 13 9
20 19 22 18 20 19 19 20 20 20 20 19 18 17 16 15 13 11 10 9 10 9 8 7 6 5 5 5 5 5 6 7 11 6 5 5 6 8 9 10 9 13 13
19 19 21 17 18 20 19 18 19 19 19 18 17 16 15 13 12 11 10 8 8 8 7 7 6 6 5 6 6 6 5 7 10 8 7 7 9 6 10 11 11 10 13
19 19 17 19 17 17 18 18 18 18 18 17 16 15 14 12 11 10 9 8 8 7 6 7 6 6 6 6 5 5 6 8 11 8 8 6 10 9 11 11 11 11 11
19 19 19 17 18 15 15 14 17 17 16 15 15 13 13 11 10 9 8 8 8 7 6 6 5 5 4 5 5 6 8 12 13 8 7 5 9 11 12 12 12 12 12
18 19 20 19 18 17 16 14 14 15 15 14 14 12 12 10 11 12 8 10 8 7 5 4 4 3 4 9 8 7 9 7 6 4 6 11 9 12 12 12 11 12 13
21 21 19 19 18 17 13 14 13 13 12 13 13 13 10 9 8 7 9 7 6 5 4 4 4 4 9 6 6 12 7 6 6 5 3 12 10 12 13 11 12 12 11
21 17 20 18 17 17 14 12 9 8 9 9 12 12 8 7 6 6 7 7 7 8 7 9 9 7 3 5 3 4 6 6 5 5 8 12 13 15 14 14 13 13 12
22 19 19 19 16 15 11 11 11 9 9 8 10 12 7 6 7 5 5 5 4 5 3 4 3 1 4 4 4 5 6 6 5 6 7 15 13 12 13 13 14 14 14
20 20 20 18 16 14 13 11 10 9 9 9 9 11 9 7 7 6 5 5 5 4 5 4 3 2 2 1 4 5 6 6 7 6 5 15 13 13 14 14 14 14 14
19 21 20 19 17 16 12 12 10 8 9 9 9 10 9 7 6 6 6 6 5 4 3 3 2 2 2 3 3 5 7 6 7 7 6 4 12 12 12 13 15 15 15
18 17 16 18 18 16 15 12 10 9 9 8 8 9 9 8 7 6 6 5 5 3 4 4 4 1 2 2 4 5 7 7 6 6 7 6 3 11 9 12 14 15 15
15 15 14 17 19 17 14 12 10 10 8 8 7 8 9 8 7 6 5 6 5 5 4 3 2 3 3 4 5 5 4 5 5 5 5 6 7 7 2 11 10 10 13
16 16 17 18 18 17 14 11 10 9 8 7 7 7 8 8 8 6 5 5 5 3 2 4 4 3 4 3 4 5 5 10 6 5 5 5 5 7 7 9 7 6 8
21 18 19 17 17 16 12 7 8 8 8 7 6 6 8 6 7 6 4 3 4 4 4 2 5 5 4 5 6 7 8 9 5 4 4 5 5 8 8 9 9 6 3
20 20 19 19 18 12 10 11 9 9 8 7 6 7 8 6 6 6 3 3 3 4 8 7 5 7 7 7 5 9 8 7 7 5 4 5 6 10 9 8 6 6 7
22 21 20 19 18 13 11 8 8 8 8 7 7 6 6 7 7 7 8 8 9 6 5 7 10 6 5 4 5 7 6 5 7 6 6 6 8 9 8 8 7 7 8
22 21 19 18 16 13 11 9 8 8 8 6 8 7 9 11 13 11 11 9 9 7 4 6 7 7 3 4 4 4 6 6 8 4 5 6 8 7 7 6 6 7 8
20 19 19 18 18 14 14 12 12 9 10 4 7 8 9 13 12 10 8 8 8 6 6 5 4 2 1 3 2 1 3 3 4 6 4 8 7 5 6 7 7 7 9
20 19 18 17 16 16 12 12 10 12 9 8 8 10 6 8 11 12 12 13 10 6 6 7 6 3 2 1 2 2 3 3 3 6 9 11 8 6 7 7 8 9 10
19 19 18 19 18 17 15 17 17 18 14 12 11 10 8 5 5 8 9 9 9 7 9 7 5 4 3 1 2 3 4 4 6 6 8 8 8 7 5 4 5 4 9
Wind_Direction
158 144 153 144 140 144 142 143 141 139 139 143 146 148 148 146 138 139 131 120 120 127 129 131 131 129 127 124 122 122 122 125 127 127 126 126 130 140 159 183 220 218 128
147 151 154 148 146 145 143 143 141 140 143 146 148 151 150 145 140 138 131 125 129 134 135 135 131 130 131 130 127 126 129 130 134 141 151 165 172 187 206 213 239 21 185
147 153 160 154 148 142 140 141 141 143 145 146 150 152 149 146 142 139 136 134 135 139 138 135 136 137 133 132 135 136 136 142 149 166 208 233 150 182 215 223 240 251 245
149 156 163 155 150 141 141 142 142 142 143 146 149 150 150 147 143 141 141 138 140 140 135 136 138 135 136 139 141 143 146 151 171 203 222 207 221 165 211 229 240 243 247
159 160 154 156 151 143 142 142 142 143 143 147 151 151 150 145 142 143 142 141 145 141 138 138 140 146 151 151 149 147 156 182 214 235 239 255 297 123 223 238 238 237 246
162 162 143 157 150 144 145 143 144 143 145 149 151 151 146 144 144 144 145 145 147 149 148 147 147 155 151 141 152 157 180 224 254 235 239 189 277 62 358 279 259 269 256
159 159 156 156 148 146 148 148 146 146 147 151 152 152 148 146 146 145 142 142 147 149 148 147 143 141 155 164 167 188 217 244 265 273 294 274 325 33 330 313 280 259 258
157 151 153 153 150 148 151 151 147 147 149 152 153 151 146 146 143 139 138 145 147 148 149 150 153 163 170 183 202 227 259 291 276 269 298 303 62 8 318 309 303 286 265
156 158 159 162 156 150 150 151 147 148 152 153 150 147 143 142 137 133 135 144 145 143 150 154 165 178 192 211 241 283 304 305 293 298 306 285 57 346 318 308 297 292 286
163 159 163 161 164 165 156 149 148 149 152 149 144 142 138 130 131 136 137 146 145 148 158 160 174 195 221 258 298 314 304 279 256 303 269 44 18 322 311 306 300 291 283
171 166 169 166 167 167 159 152 148 150 145 144 141 138 143 171 173 162 99 135 150 157 157 168 189 236 279 246 228 245 263 261 312 298 297 51 0 329 322 313 308 303 296
176 172 170 172 166 165 158 153 163 160 167 171 172 169 182 160 177 192 123 146 156 166 181 210 226 248 240 256 189 209 244 317 287 303 339 43 354 337 340 345 344 332 325
176 178 173 171 169 168 162 164 164 168 162 172 175 176 182 167 157 183 153 173 177 193 199 196 190 222 358 312 304 315 319 295 315 323 55 47 5 353 353 353 359 9 9
179 178 176 170 173 175 161 175 166 170 167 171 176 180 160 186 174 177 187 171 195 183 177 223 200 3 254 265 317 307 310 325 335 318 66 60 26 11 16 8 9 7 4
182 174 188 174 174 174 171 174 174 169 174 173 169 177 175 187 185 187 174 202 199 181 187 201 207 263 276 278 294 335 342 321 316 315 329 80 59 38 28 20 15 11 8
186 180 184 184 172 173 178 174 172 179 171 176 174 172 182 194 176 183 187 204 205 211 179 222 202 296 321 334 345 346 315 321 333 333 330 92 95 66 35 21 13 9 3
189 169 181 181 175 175 176 171 176 173 174 183 177 166 185 200 180 208 205 207 203 181 216 216 219 192 313 331 345 327 317 334 340 341 308 333 100 117 79 27 6 2 359
190 167 173 186 176 176 177 175 179 169 184 183 176 169 185 188 183 203 197 205 179 206 210 210 184 133 62 23 350 327 330 315 355 319 339 337 350 348 88 48 355 347 0
193 169 172 194 177 176 174 175 179 164 194 183 176 174 179 187 179 217 205 165 205 190 167 125 85 60 62 356 310 320 330 359 307 306 332 331 8 349 337 360 344 287 26
187 177 179 187 178 175 161 147 187 165 187 172 176 173 158 187 184 200 173 160 206 178 142 114 108 69 46 357 341 352 341 283 267 286 287 315 350 324 330 335 323 346 88
183 177 181 180 174 162 162 184 174 173 169 164 167 150 160 167 169 176 166 104 52 58 65 44 54 41 29 10 350 336 291 267 261 299 297 321 325 327 327 334 329 342 345
182 178 182 178 168 170 178 179 172 167 158 153 132 140 134 131 118 107 94 94 80 59 64 64 54 38 50 4 15 306 287 256 237 243 304 316 351 319 334 342 346 348 343
180 175 180 172 158 178 160 142 140 121 108 116 108 97 100 101 100 102 96 91 82 86 342 31 48 34 324 52 332 313 297 306 346 270 300 326 330 337 343 337 359 343 349
175 173 169 168 156 166 166 151 149 160 121 117 105 111 111 112 115 121 125 127 135 130 111 83 52 72 323 259 182 299 340 323 312 306 318 324 310 333 350 349 3 354 357
172 166 163 157 159 152 165 148 122 110 114 106 103 107 116 140 149 144 137 128 115 110 99 88 80 68 90 277 265 291 284 289 267 298 306 321 325 346 356 355 356 354 350
166 155 151 154 157 154 155 129 136 127 131 129 136 145 140 120 110 130 116 107 97 98 91 96 104 103 78 68 37 327 326 320 318 300 306 320 328 345 345 8 318 345 323